BXTK1: Spring River at Baxter Springs

                                SHEF ID:       BXTK1     SPRING R NR BAXTER SPRINGS, KS
STATION TYPE:

PRECIP STAGE RIV-FLOW BAT-LOAD
in ft cfs volt
Ccp-Rev Ccp-Rev Ccp-Rev Ccp-Rev
(America/Chicago)
04/25 00:00 0.00 4.99 4100 12.37
04/25 01:00 0.00 4.98 4071 12.36
04/25 02:00 0.00 4.97 4042 12.34
04/25 03:00 0.00 4.96 4013 12.32
04/25 04:00 0.00 4.96 4013 12.30
04/25 05:00 0.00 4.94 3955 12.27
04/25 06:00 0.00 4.94 3955 12.24
04/25 07:00 0.00 4.94 3955 12.19
04/25 08:00 0.00 4.93 3926 12.79
04/25 09:00 0.00 4.93 3926 13.14
04/25 10:00 0.00 4.93 3926 13.95
04/25 11:00 0.00 4.92 3898 14.05
04/25 12:00 0.00 4.91 3869 13.99
04/25 13:00 0.00 4.90 3841 13.91
04/25 14:00 0.00 4.88 3784 13.82
04/25 15:00 0.00 4.88 3784 13.70
04/25 16:00 0.00 4.86 3728 13.64
04/25 17:00 0.00 4.85 3700 13.21
04/25 18:00 0.00 4.83 3645 12.59
04/25 19:00 0.00 4.81 3589 12.44
04/25 20:00 0.00 4.79 3535 12.42
04/25 21:00 0.01 4.77 3480 12.41
04/25 22:00 0.00 4.76 3453 12.38
04/25 23:00 ---- ---- ---- ----
Data processed at Sun 26Apr2026 04:42 GMT

NOTICE: If you are parsing this page

Please convert to using our Data API. Starting early 2026 we will be migrating to: https://water.usace.army.mil with modern pages rendered in JavaScript. When this migration completes you will no longer be able to scrape this page! CWMSDataAPI (CDA)

Timeseries IDs (TSIDs)

TSIDs used from left to right in the data table
BAXT.Precip-Inc.Total.1Hour.1Hour.Ccp-Rev
BAXT.Stage.Inst.1Hour.0.Ccp-Rev
BAXT.Flow.Inst.1Hour.0.Ccp-Rev
BAXT.Volt-Battery Load.Inst.1Hour.0.Ccp-Rev

                            

All information presented herein is the property of the government of the United States of America and may be revised or deleted at any time without prior notice. Dissemination of this information without the expressed written consent of the Public Affairs Office, Tulsa District U.S. Army Corps of Engineers is strictly prohibited. These data are gathered electronically and, as presented, have NOT undergone any form of quality control. These data are NOT guaranteed to be valid or correct.